| time (UTC) | temp F | wind direction | speed MPH | gust MPH | rain 1hr in | rain 24hr in | rain mn in | humidity % | barometer mb |
| 20260507223319 | 77 | 239 | 7.0 | 25.0 | 0.00 | 0.09 | 0.47 | 89 | 1007.0 |
| 20260507223119 | 77 | 239 | 7.0 | 25.0 | 0.00 | 0.09 | 0.47 | 89 | 1007.0 |
| 20260507222919 | 77 | 219 | 8.0 | 27.0 | 0.00 | 0.09 | 0.47 | 90 | 1007.0 |
| 20260507222719 | 77 | 219 | 8.0 | 27.0 | 0.00 | 0.09 | 0.47 | 90 | 1007.0 |
| 20260507222519 | 77 | 219 | 8.0 | 27.0 | 0.00 | 0.09 | 0.47 | 90 | 1007.0 |
| 20260507222319 | 77 | 219 | 8.0 | 27.0 | 0.00 | 0.09 | 0.47 | 90 | 1007.0 |
| 20260507222119 | 77 | 219 | 8.0 | 27.0 | 0.00 | 0.09 | 0.47 | 90 | 1007.0 |
| 20260507221919 | 77 | 219 | 8.0 | 27.0 | 0.00 | 0.09 | 0.47 | 90 | 1007.0 |
| 20260507221719 | 77 | 219 | 8.0 | 27.0 | 0.00 | 0.09 | 0.47 | 90 | 1007.0 |
| 20260507221520 | 77 | 219 | 8.0 | 27.0 | 0.00 | 0.09 | 0.47 | 90 | 1007.0 |
| 20260507221119 | 77 | 205 | 10.0 | 29.0 | 0.00 | 0.09 | 0.47 | 90 | 1007.0 |
| 20260507220919 | 77 | 205 | 10.0 | 29.0 | 0.00 | 0.09 | 0.47 | 90 | 1007.0 |
| 20260507220719 | 77 | 205 | 10.0 | 29.0 | 0.00 | 0.09 | 0.47 | 90 | 1007.0 |
| 20260507220519 | 77 | 205 | 10.0 | 29.0 | 0.00 | 0.09 | 0.47 | 90 | 1007.0 |
| 20260507220319 | 77 | 205 | 10.0 | 29.0 | 0.00 | 0.09 | 0.47 | 90 | 1007.0 |
| 20260507220119 | 77 | 205 | 10.0 | 29.0 | 0.00 | 0.09 | 0.47 | 90 | 1007.0 |
| 20260507215919 | 77 | 193 | 12.0 | 29.0 | 0.00 | 0.09 | 0.47 | 90 | 1007.0 |
| 20260507215719 | 77 | 193 | 12.0 | 29.0 | 0.00 | 0.09 | 0.47 | 90 | 1007.0 |
| 20260507215519 | 77 | 193 | 12.0 | 29.0 | 0.00 | 0.09 | 0.47 | 90 | 1007.0 |
| 20260507215119 | 77 | 193 | 12.0 | 29.0 | 0.00 | 0.09 | 0.47 | 90 | 1007.0 |
| 20260507214919 | 77 | 193 | 12.0 | 29.0 | 0.00 | 0.09 | 0.47 | 90 | 1007.0 |
| 20260507214719 | 77 | 193 | 12.0 | 29.0 | 0.00 | 0.09 | 0.47 | 90 | 1007.0 |
| 20260507214519 | 77 | 193 | 12.0 | 29.0 | 0.00 | 0.09 | 0.47 | 90 | 1007.0 |
| 20260507214319 | 77 | 181 | 13.0 | 27.0 | 0.00 | 0.09 | 0.47 | 90 | 1008.0 |
| 20260507214119 | 77 | 181 | 13.0 | 27.0 | 0.00 | 0.09 | 0.47 | 90 | 1008.0 |
| 20260507213919 | 77 | 181 | 13.0 | 27.0 | 0.00 | 0.09 | 0.47 | 90 | 1008.0 |
| 20260507213719 | 77 | 181 | 13.0 | 27.0 | 0.00 | 0.09 | 0.47 | 90 | 1008.0 |
| 20260507213519 | 77 | 181 | 13.0 | 27.0 | 0.00 | 0.09 | 0.47 | 90 | 1008.0 |
| 20260507213319 | 77 | 181 | 13.0 | 27.0 | 0.00 | 0.09 | 0.47 | 90 | 1008.0 |
| 20260507212919 | 77 | 175 | 15.0 | 25.0 | 0.00 | 0.09 | 0.47 | 90 | 1008.0 |
| 20260507212719 | 77 | 175 | 15.0 | 25.0 | 0.00 | 0.09 | 0.47 | 90 | 1008.0 |
| 20260507212519 | 77 | 175 | 15.0 | 25.0 | 0.00 | 0.09 | 0.47 | 90 | 1008.0 |
| 20260507212319 | 77 | 175 | 15.0 | 25.0 | 0.00 | 0.09 | 0.47 | 90 | 1008.0 |
| 20260507212119 | 77 | 175 | 15.0 | 25.0 | 0.00 | 0.09 | 0.47 | 90 | 1008.0 |
| 20260507211919 | 77 | 175 | 15.0 | 25.0 | 0.00 | 0.09 | 0.47 | 90 | 1008.0 |
| 20260507211719 | 77 | 175 | 15.0 | 25.0 | 0.00 | 0.09 | 0.47 | 90 | 1008.0 |
| 20260507211520 | 77 | 175 | 15.0 | 25.0 | 0.00 | 0.09 | 0.47 | 90 | 1008.0 |
| 20260507211119 | 77 | 171 | 15.0 | 25.0 | 0.00 | 0.09 | 0.47 | 90 | 1008.0 |
| 20260507210919 | 77 | 171 | 15.0 | 25.0 | 0.00 | 0.09 | 0.47 | 90 | 1008.0 |
| 20260507210719 | 77 | 171 | 15.0 | 25.0 | 0.00 | 0.09 | 0.47 | 90 | 1008.0 |
| 20260507210519 | 77 | 171 | 15.0 | 25.0 | 0.00 | 0.09 | 0.47 | 90 | 1008.0 |
| 20260507210319 | 77 | 171 | 15.0 | 25.0 | 0.00 | 0.09 | 0.47 | 90 | 1008.0 |
| 20260507210119 | 77 | 171 | 15.0 | 25.0 | 0.00 | 0.09 | 0.47 | 90 | 1008.0 |
| 20260507205919 | 77 | 172 | 12.0 | 24.0 | 0.00 | 0.09 | 0.47 | 90 | 1008.0 |
| 20260507205719 | 77 | 172 | 12.0 | 24.0 | 0.00 | 0.09 | 0.47 | 90 | 1008.0 |
| 20260507205519 | 77 | 172 | 12.0 | 24.0 | 0.00 | 0.09 | 0.47 | 90 | 1008.0 |
| 20260507205119 | 77 | 172 | 12.0 | 24.0 | 0.00 | 0.09 | 0.47 | 90 | 1008.0 |
| 20260507204919 | 77 | 172 | 12.0 | 24.0 | 0.00 | 0.09 | 0.47 | 90 | 1008.0 |
| 20260507204719 | 77 | 172 | 12.0 | 24.0 | 0.00 | 0.09 | 0.47 | 90 | 1008.0 |
| 20260507204519 | 77 | 172 | 12.0 | 24.0 | 0.00 | 0.09 | 0.47 | 90 | 1008.0 |
| 20260507204319 | 77 | 180 | 7.0 | 24.0 | 0.00 | 0.09 | 0.47 | 91 | 1008.0 |
| 20260507204119 | 77 | 180 | 7.0 | 24.0 | 0.00 | 0.09 | 0.47 | 91 | 1008.0 |
| 20260507203919 | 77 | 180 | 7.0 | 24.0 | 0.00 | 0.09 | 0.47 | 91 | 1008.0 |
| 20260507203719 | 77 | 180 | 7.0 | 24.0 | 0.00 | 0.09 | 0.47 | 91 | 1008.0 |
| 20260507203519 | 77 | 180 | 7.0 | 24.0 | 0.00 | 0.09 | 0.47 | 91 | 1008.0 |
| 20260507203319 | 77 | 180 | 7.0 | 24.0 | 0.00 | 0.09 | 0.47 | 91 | 1008.0 |
| 20260507202919 | 77 | 211 | 4.0 | 24.0 | 0.00 | 0.09 | 0.47 | 91 | 1008.0 |
| 20260507202719 | 77 | 211 | 4.0 | 24.0 | 0.00 | 0.09 | 0.47 | 91 | 1008.0 |
| 20260507202519 | 77 | 211 | 4.0 | 24.0 | 0.00 | 0.09 | 0.47 | 91 | 1008.0 |
| 20260507202319 | 77 | 211 | 4.0 | 24.0 | 0.00 | 0.09 | 0.47 | 91 | 1008.0 |
| 20260507202119 | 77 | 211 | 4.0 | 24.0 | 0.00 | 0.09 | 0.47 | 91 | 1008.0 |
| 20260507201919 | 77 | 211 | 4.0 | 24.0 | 0.00 | 0.09 | 0.47 | 91 | 1008.0 |
| 20260507201719 | 77 | 211 | 4.0 | 24.0 | 0.00 | 0.09 | 0.47 | 91 | 1008.0 |
| 20260507201519 | 77 | 211 | 4.0 | 24.0 | 0.00 | 0.09 | 0.47 | 91 | 1008.0 |
| 20260507201319 | 77 | 261 | 4.0 | 25.0 | 0.01 | 0.09 | 0.47 | 92 | 1008.0 |
| 20260507201120 | 77 | 261 | 4.0 | 25.0 | 0.01 | 0.09 | 0.47 | 92 | 1008.0 |
| 20260507200719 | 77 | 261 | 4.0 | 25.0 | 0.01 | 0.09 | 0.47 | 92 | 1008.0 |
| 20260507200519 | 77 | 261 | 4.0 | 25.0 | 0.01 | 0.09 | 0.47 | 92 | 1008.0 |
| 20260507200319 | 77 | 261 | 4.0 | 25.0 | 0.01 | 0.09 | 0.47 | 92 | 1008.0 |
| 20260507200119 | 77 | 261 | 4.0 | 25.0 | 0.01 | 0.09 | 0.47 | 92 | 1008.0 |
| 20260507195919 | 77 | 273 | 6.0 | 28.0 | 0.01 | 0.09 | 0.47 | 94 | 1009.0 |
| 20260507195719 | 77 | 273 | 6.0 | 28.0 | 0.01 | 0.09 | 0.47 | 94 | 1009.0 |
| 20260507195519 | 77 | 273 | 6.0 | 28.0 | 0.01 | 0.09 | 0.47 | 94 | 1009.0 |
| 20260507195319 | 77 | 273 | 6.0 | 28.0 | 0.01 | 0.09 | 0.47 | 94 | 1009.0 |
| 20260507195119 | 77 | 273 | 6.0 | 28.0 | 0.01 | 0.09 | 0.47 | 94 | 1009.0 |
| 20260507194919 | 77 | 273 | 6.0 | 28.0 | 0.01 | 0.09 | 0.47 | 94 | 1009.0 |
| 20260507194519 | 77 | 273 | 6.0 | 28.0 | 0.01 | 0.09 | 0.47 | 94 | 1009.0 |
| 20260507194319 | 76 | 274 | 9.0 | 33.0 | 0.01 | 0.09 | 0.47 | 95 | 1009.0 |
| 20260507194119 | 76 | 274 | 9.0 | 33.0 | 0.01 | 0.09 | 0.47 | 95 | 1009.0 |
| 20260507193919 | 76 | 274 | 9.0 | 33.0 | 0.01 | 0.09 | 0.47 | 95 | 1009.0 |
| 20260507193719 | 76 | 274 | 9.0 | 33.0 | 0.01 | 0.09 | 0.47 | 95 | 1009.0 |
| 20260507193520 | 76 | 274 | 9.0 | 33.0 | 0.01 | 0.09 | 0.47 | 95 | 1009.0 |
| 20260507193319 | 76 | 274 | 9.0 | 33.0 | 0.01 | 0.09 | 0.47 | 95 | 1009.0 |
| 20260507193119 | 76 | 274 | 9.0 | 33.0 | 0.01 | 0.09 | 0.47 | 95 | 1009.0 |
| 20260507192919 | 75 | 270 | 12.0 | 37.0 | 0.01 | 0.09 | 0.47 | 96 | 1009.0 |
| 20260507192519 | 75 | 270 | 12.0 | 37.0 | 0.01 | 0.09 | 0.47 | 96 | 1009.0 |
| 20260507192319 | 75 | 270 | 12.0 | 37.0 | 0.01 | 0.09 | 0.47 | 96 | 1009.0 |
| 20260507192119 | 75 | 270 | 12.0 | 37.0 | 0.01 | 0.09 | 0.47 | 96 | 1009.0 |
| 20260507191919 | 75 | 270 | 12.0 | 37.0 | 0.01 | 0.09 | 0.47 | 96 | 1009.0 |
| 20260507191719 | 75 | 270 | 12.0 | 37.0 | 0.01 | 0.09 | 0.47 | 96 | 1009.0 |
| 20260507191519 | 75 | 270 | 12.0 | 37.0 | 0.01 | 0.09 | 0.47 | 96 | 1009.0 |
| 20260507191319 | 76 | 262 | 13.0 | 39.0 | 0.11 | 0.09 | 0.47 | 94 | 1010.0 |
| 20260507191119 | 76 | 262 | 13.0 | 39.0 | 0.11 | 0.09 | 0.47 | 94 | 1010.0 |
| 20260507190919 | 76 | 262 | 13.0 | 39.0 | 0.11 | 0.09 | 0.47 | 94 | 1010.0 |
| 20260507190719 | 76 | 262 | 13.0 | 39.0 | 0.11 | 0.09 | 0.47 | 94 | 1010.0 |
| 20260507190319 | 76 | 262 | 13.0 | 39.0 | 0.11 | 0.09 | 0.47 | 94 | 1010.0 |
| 20260507190119 | 76 | 262 | 13.0 | 39.0 | 0.11 | 0.09 | 0.47 | 94 | 1010.0 |
| 20260507185919 | 78 | 247 | 12.0 | 37.0 | 0.11 | 0.00 | 0.02 | 88 | 1009.0 |
| 20260507185719 | 78 | 238 | 13.0 | 37.0 | 0.11 | 0.00 | 0.02 | 88 | 1009.0 |
| 20260507185519 | 78 | 238 | 13.0 | 37.0 | 0.11 | 0.00 | 0.02 | 88 | 1009.0 |
| 20260507185319 | 78 | 238 | 13.0 | 37.0 | 0.11 | 0.00 | 0.02 | 88 | 1009.0 |
| 20260507185119 | 78 | 238 | 13.0 | 37.0 | 0.11 | 0.00 | 0.02 | 88 | 1009.0 |
| 20260507184919 | 78 | 224 | 10.0 | 37.0 | 0.11 | 0.00 | 0.02 | 88 | 1009.0 |
| 20260507184719 | 78 | 224 | 10.0 | 37.0 | 0.11 | 0.00 | 0.02 | 88 | 1009.0 |
| 20260507184319 | 80 | 178 | 8.0 | 33.0 | 0.11 | 0.00 | 0.02 | 81 | 1009.0 |
| 20260507184119 | 80 | 178 | 8.0 | 31.0 | 0.11 | 0.00 | 0.02 | 81 | 1009.0 |
| 20260507183919 | 80 | 178 | 8.0 | 31.0 | 0.11 | 0.00 | 0.02 | 81 | 1009.0 |
| 20260507183719 | 80 | 178 | 8.0 | 31.0 | 0.11 | 0.00 | 0.02 | 81 | 1009.0 |
| 20260507183519 | 80 | 178 | 8.0 | 31.0 | 0.11 | 0.00 | 0.02 | 81 | 1009.0 |
| 20260507183320 | 80 | 178 | 8.0 | 31.0 | 0.11 | 0.00 | 0.02 | 81 | 1009.0 |
| 20260507183119 | 80 | 178 | 8.0 | 31.0 | 0.11 | 0.00 | 0.02 | 81 | 1009.0 |
| 20260507182919 | 85 | 143 | 12.0 | 34.0 | 0.11 | 0.00 | 0.02 | 68 | 1008.0 |
| 20260507182719 | 85 | 143 | 12.0 | 34.0 | 0.11 | 0.00 | 0.02 | 68 | 1008.0 |
| 20260507182519 | 85 | 143 | 12.0 | 34.0 | 0.11 | 0.00 | 0.02 | 68 | 1008.0 |
| 20260507182119 | 85 | 143 | 12.0 | 34.0 | 0.11 | 0.00 | 0.02 | 68 | 1008.0 |
| 20260507181919 | 85 | 143 | 12.0 | 34.0 | 0.01 | 0.05 | 0.02 | 68 | 1008.0 |
| 20260507181719 | 85 | 143 | 12.0 | 34.0 | 0.01 | 0.05 | 0.02 | 69 | 1008.0 |
| 20260507181519 | 85 | 143 | 12.0 | 34.0 | 0.01 | 0.05 | 0.02 | 69 | 1008.0 |
| 20260507181319 | 86 | 132 | 16.0 | 38.0 | 0.00 | 0.05 | 0.02 | 68 | 1008.0 |
| 20260507181119 | 86 | 132 | 16.0 | 38.0 | 0.00 | 0.05 | 0.02 | 68 | 1008.0 |
| 20260507180919 | 86 | 132 | 16.0 | 38.0 | 0.00 | 0.05 | 0.02 | 68 | 1008.0 |
| 20260507180719 | 86 | 132 | 16.0 | 38.0 | 0.00 | 0.05 | 0.02 | 68 | 1008.0 |
| 20260507180519 | 86 | 132 | 16.0 | 38.0 | 0.00 | 0.05 | 0.02 | 68 | 1008.0 |
| 20260507180319 | 86 | 132 | 16.0 | 38.0 | 0.00 | 0.05 | 0.02 | 68 | 1008.0 |
| 20260507175920 | 86 | 132 | 19.0 | 41.0 | 0.00 | 0.05 | 0.02 | 68 | 1008.0 |
| 20260507175719 | 86 | 132 | 19.0 | 41.0 | 0.00 | 0.05 | 0.02 | 68 | 1008.0 |
| 20260507175519 | 86 | 132 | 19.0 | 41.0 | 0.00 | 0.05 | 0.02 | 68 | 1008.0 |
| 20260507175319 | 86 | 132 | 19.0 | 41.0 | 0.00 | 0.05 | 0.02 | 68 | 1008.0 |
| 20260507175119 | 86 | 132 | 19.0 | 41.0 | 0.00 | 0.05 | 0.02 | 68 | 1008.0 |
| 20260507174919 | 86 | 132 | 19.0 | 41.0 | 0.00 | 0.05 | 0.02 | 68 | 1008.0 |
| 20260507174719 | 86 | 132 | 19.0 | 41.0 | 0.00 | 0.05 | 0.02 | 68 | 1008.0 |
| 20260507174519 | 86 | 132 | 19.0 | 41.0 | 0.00 | 0.05 | 0.02 | 68 | 1008.0 |
| 20260507174319 | 86 | 135 | 20.0 | 46.0 | 0.00 | 0.05 | 0.02 | 67 | 1008.0 |
| 20260507174120 | 86 | 135 | 20.0 | 46.0 | 0.00 | 0.05 | 0.02 | 67 | 1008.0 |
| 20260507171322 | 87 | 143 | 23.0 | 52.0 | 0.00 | 0.05 | 0.02 | 64 | 1008.0 |
| 20260507171122 | 87 | 143 | 23.0 | 52.0 | 0.00 | 0.05 | 0.02 | 64 | 1008.0 |
| 20260507170921 | 87 | 143 | 23.0 | 52.0 | 0.00 | 0.05 | 0.02 | 64 | 1008.0 |
| 20260507170719 | 87 | 143 | 23.0 | 52.0 | 0.00 | 0.05 | 0.02 | 64 | 1008.0 |
| 20260507170519 | 87 | 143 | 23.0 | 52.0 | 0.00 | 0.05 | 0.02 | 64 | 1008.0 |
| 20260507170319 | 87 | 143 | 23.0 | 52.0 | 0.00 | 0.05 | 0.02 | 64 | 1008.0 |
| 20260507170119 | 87 | 143 | 23.0 | 52.0 | 0.00 | 0.05 | 0.02 | 64 | 1008.0 |
| 20260507165919 | 87 | 143 | 25.0 | 53.0 | 0.00 | 0.05 | 0.02 | 61 | 1008.0 |
| 20260507165720 | 87 | 143 | 25.0 | 53.0 | 0.00 | 0.05 | 0.02 | 61 | 1008.0 |
| 20260507165520 | 87 | 143 | 25.0 | 53.0 | 0.00 | 0.05 | 0.02 | 61 | 1008.0 |
| 20260507165119 | 87 | 143 | 25.0 | 53.0 | 0.00 | 0.05 | 0.02 | 61 | 1008.0 |
| 20260507164919 | 87 | 143 | 25.0 | 53.0 | 0.00 | 0.05 | 0.02 | 61 | 1008.0 |
| 20260507164719 | 87 | 143 | 25.0 | 53.0 | 0.00 | 0.05 | 0.02 | 61 | 1008.0 |
| 20260507164521 | 87 | 143 | 25.0 | 53.0 | 0.00 | 0.05 | 0.02 | 61 | 1008.0 |
| 20260507164319 | 88 | 144 | 27.0 | 52.0 | 0.00 | 0.05 | 0.02 | 58 | 1008.0 |
| 20260507164122 | 88 | 144 | 27.0 | 52.0 | 0.00 | 0.05 | 0.02 | 58 | 1008.0 |
| 20260507163919 | 88 | 144 | 27.0 | 52.0 | 0.00 | 0.05 | 0.02 | 58 | 1008.0 |
| 20260507163721 | 88 | 144 | 27.0 | 52.0 | 0.00 | 0.05 | 0.02 | 58 | 1008.0 |
| 20260507163522 | 88 | 144 | 27.0 | 52.0 | 0.00 | 0.05 | 0.02 | 58 | 1008.0 |
| 20260507163119 | 88 | 144 | 27.0 | 52.0 | 0.00 | 0.05 | 0.02 | 58 | 1008.0 |
| 20260507162922 | 89 | 144 | 29.0 | 51.0 | 0.00 | 0.05 | 0.02 | 55 | 1008.0 |
| 20260507162719 | 89 | 144 | 29.0 | 51.0 | 0.00 | 0.05 | 0.02 | 55 | 1008.0 |
| 20260507162521 | 89 | 144 | 29.0 | 51.0 | 0.00 | 0.05 | 0.02 | 55 | 1008.0 |
| 20260507162319 | 89 | 144 | 29.0 | 51.0 | 0.00 | 0.05 | 0.02 | 55 | 1008.0 |
| 20260507162119 | 89 | 144 | 29.0 | 51.0 | 0.00 | 0.05 | 0.02 | 55 | 1008.0 |
| 20260507161919 | 89 | 144 | 29.0 | 51.0 | 0.00 | 0.05 | 0.02 | 55 | 1008.0 |
| 20260507161719 | 89 | 144 | 29.0 | 51.0 | 0.00 | 0.05 | 0.02 | 55 | 1008.0 |
| 20260507161520 | 89 | 144 | 29.0 | 51.0 | 0.00 | 0.05 | 0.02 | 55 | 1008.0 |
| 20260507161320 | 89 | 143 | 30.0 | 49.0 | 0.00 | 0.05 | 0.02 | 53 | 1007.0 |
| 20260507160919 | 89 | 143 | 30.0 | 49.0 | 0.00 | 0.05 | 0.02 | 53 | 1007.0 |
| 20260507160719 | 89 | 143 | 30.0 | 49.0 | 0.00 | 0.05 | 0.02 | 53 | 1007.0 |
| 20260507160519 | 89 | 143 | 30.0 | 49.0 | 0.00 | 0.05 | 0.02 | 53 | 1007.0 |
| 20260507160319 | 89 | 143 | 30.0 | 49.0 | 0.00 | 0.05 | 0.02 | 53 | 1007.0 |
| 20260507160120 | 89 | 143 | 30.0 | 49.0 | 0.00 | 0.05 | 0.02 | 53 | 1007.0 |
| 20260507155919 | 89 | 142 | 30.0 | 47.0 | 0.00 | 0.05 | 0.02 | 51 | 1007.0 |
| 20260507155719 | 89 | 142 | 30.0 | 47.0 | 0.00 | 0.05 | 0.02 | 51 | 1007.0 |
| 20260507155519 | 89 | 142 | 30.0 | 47.0 | 0.00 | 0.05 | 0.02 | 51 | 1007.0 |
| 20260507155319 | 89 | 142 | 30.0 | 47.0 | 0.00 | 0.05 | 0.02 | 51 | 1007.0 |
| 20260507154920 | 89 | 142 | 30.0 | 47.0 | 0.00 | 0.05 | 0.02 | 51 | 1007.0 |
| 20260507154724 | 89 | 142 | 30.0 | 47.0 | 0.00 | 0.05 | 0.02 | 51 | 1007.0 |
| 20260507154520 | 89 | 142 | 30.0 | 47.0 | 0.00 | 0.05 | 0.02 | 51 | 1007.0 |
| 20260507154320 | 90 | 142 | 30.0 | 45.0 | 0.00 | 0.05 | 0.02 | 50 | 1007.0 |
| 20260507154119 | 90 | 142 | 30.0 | 45.0 | 0.00 | 0.05 | 0.02 | 50 | 1007.0 |
| 20260507153919 | 90 | 142 | 30.0 | 45.0 | 0.00 | 0.05 | 0.02 | 50 | 1007.0 |
| 20260507153719 | 90 | 142 | 30.0 | 45.0 | 0.00 | 0.05 | 0.02 | 50 | 1007.0 |
| 20260507153520 | 90 | 142 | 30.0 | 45.0 | 0.00 | 0.05 | 0.02 | 50 | 1007.0 |
| 20260507153320 | 90 | 142 | 30.0 | 45.0 | 0.00 | 0.05 | 0.02 | 50 | 1007.0 |
| 20260507153121 | 90 | 142 | 30.0 | 45.0 | 0.00 | 0.05 | 0.02 | 50 | 1007.0 |
| 20260507152719 | 90 | 141 | 28.0 | 42.0 | 0.00 | 0.05 | 0.02 | 49 | 1007.0 |
| 20260507152519 | 90 | 141 | 28.0 | 42.0 | 0.00 | 0.05 | 0.02 | 49 | 1007.0 |
| 20260507152319 | 90 | 141 | 28.0 | 42.0 | 0.00 | 0.05 | 0.02 | 49 | 1007.0 |
| 20260507152119 | 90 | 141 | 28.0 | 42.0 | 0.00 | 0.05 | 0.02 | 49 | 1007.0 |
| 20260507151919 | 90 | 141 | 28.0 | 42.0 | 0.00 | 0.05 | 0.02 | 49 | 1007.0 |
| 20260507151719 | 90 | 141 | 28.0 | 42.0 | 0.00 | 0.05 | 0.02 | 49 | 1007.0 |
| 20260507151519 | 90 | 141 | 28.0 | 42.0 | 0.00 | 0.05 | 0.02 | 49 | 1007.0 |
| 20260507151319 | 91 | 140 | 26.0 | 39.0 | 0.00 | 0.05 | 0.02 | 47 | 1007.0 |
| 20260507151119 | 91 | 140 | 26.0 | 39.0 | 0.00 | 0.05 | 0.02 | 47 | 1007.0 |
| 20260507150739 | 91 | 140 | 26.0 | 39.0 | 0.00 | 0.05 | 0.02 | 47 | 1007.0 |
| 20260507150539 | 91 | 140 | 26.0 | 39.0 | 0.00 | 0.05 | 0.02 | 47 | 1007.0 |
| 20260507150340 | 91 | 140 | 26.0 | 39.0 | 0.00 | 0.05 | 0.02 | 47 | 1007.0 |
| 20260507150139 | 91 | 140 | 26.0 | 39.0 | 0.00 | 0.05 | 0.02 | 47 | 1007.0 |
| 20260507145939 | 91 | 140 | 22.0 | 34.0 | 0.00 | 0.05 | 0.02 | 46 | 1007.0 |
| 20260507145741 | 91 | 140 | 22.0 | 34.0 | 0.00 | 0.05 | 0.02 | 46 | 1007.0 |
| 20260507145539 | 91 | 140 | 22.0 | 34.0 | 0.00 | 0.05 | 0.02 | 46 | 1007.0 |
| 20260507145339 | 91 | 140 | 22.0 | 34.0 | 0.00 | 0.05 | 0.02 | 46 | 1007.0 |
| 20260507145139 | 91 | 140 | 22.0 | 34.0 | 0.00 | 0.05 | 0.02 | 46 | 1007.0 |
| 20260507144739 | 91 | 140 | 22.0 | 34.0 | 0.00 | 0.05 | 0.02 | 46 | 1007.0 |
| 20260507144539 | 91 | 140 | 22.0 | 34.0 | 0.00 | 0.05 | 0.02 | 46 | 1007.0 |
| 20260507144339 | 91 | 141 | 17.0 | 28.0 | 0.00 | 0.05 | 0.02 | 45 | 1006.0 |
| 20260507144139 | 91 | 141 | 17.0 | 28.0 | 0.00 | 0.05 | 0.02 | 45 | 1006.0 |
| 20260507143939 | 91 | 141 | 17.0 | 28.0 | 0.00 | 0.05 | 0.02 | 45 | 1006.0 |
| 20260507143739 | 91 | 141 | 17.0 | 28.0 | 0.00 | 0.05 | 0.02 | 45 | 1006.0 |
| 20260507143539 | 91 | 141 | 17.0 | 28.0 | 0.00 | 0.05 | 0.02 | 45 | 1006.0 |
| 20260507143339 | 91 | 141 | 17.0 | 28.0 | 0.00 | 0.05 | 0.02 | 45 | 1006.0 |
| 20260507143139 | 91 | 141 | 17.0 | 28.0 | 0.00 | 0.05 | 0.02 | 45 | 1006.0 |
| 20260507142739 | 92 | 139 | 12.0 | 23.0 | 0.00 | 0.05 | 0.02 | 44 | 1006.0 |
| 20260507142539 | 92 | 139 | 12.0 | 23.0 | 0.00 | 0.05 | 0.02 | 44 | 1006.0 |
| 20260507142339 | 92 | 139 | 12.0 | 23.0 | 0.00 | 0.05 | 0.02 | 44 | 1006.0 |
| 20260507142139 | 92 | 139 | 12.0 | 23.0 | 0.00 | 0.05 | 0.02 | 44 | 1006.0 |
| 20260507141939 | 92 | 139 | 12.0 | 23.0 | 0.00 | 0.05 | 0.02 | 44 | 1006.0 |
| 20260507141739 | 92 | 139 | 12.0 | 23.0 | 0.00 | 0.05 | 0.02 | 44 | 1006.0 |
| 20260507141539 | 92 | 139 | 12.0 | 23.0 | 0.00 | 0.05 | 0.02 | 44 | 1006.0 |
| 20260507141339 | 92 | 139 | 9.0 | 20.0 | 0.00 | 0.05 | 0.02 | 43 | 1006.0 |
| 20260507141139 | 92 | 139 | 9.0 | 20.0 | 0.00 | 0.05 | 0.02 | 43 | 1006.0 |
| 20260507140940 | 92 | 139 | 9.0 | 20.0 | 0.00 | 0.05 | 0.02 | 43 | 1006.0 |
| 20260507140539 | 92 | 139 | 9.0 | 20.0 | 0.00 | 0.05 | 0.02 | 43 | 1006.0 |
| 20260507140339 | 92 | 139 | 9.0 | 20.0 | 0.00 | 0.05 | 0.02 | 43 | 1006.0 |
| 20260507140140 | 92 | 139 | 9.0 | 20.0 | 0.00 | 0.05 | 0.02 | 43 | 1006.0 |
| 20260507135939 | 92 | 138 | 8.0 | 20.0 | 0.00 | 0.05 | 0.02 | 43 | 1005.0 |
| 20260507135739 | 92 | 138 | 8.0 | 20.0 | 0.00 | 0.05 | 0.02 | 43 | 1005.0 |
| 20260507135539 | 92 | 138 | 8.0 | 20.0 | 0.00 | 0.05 | 0.02 | 43 | 1005.0 |
| 20260507135339 | 92 | 138 | 8.0 | 20.0 | 0.00 | 0.05 | 0.02 | 43 | 1005.0 |
| 20260507135139 | 92 | 138 | 8.0 | 20.0 | 0.00 | 0.05 | 0.02 | 43 | 1005.0 |
| 20260507134939 | 92 | 138 | 8.0 | 20.0 | 0.00 | 0.05 | 0.02 | 43 | 1005.0 |
| 20260507134539 | 92 | 138 | 8.0 | 20.0 | 0.00 | 0.05 | 0.02 | 43 | 1005.0 |
| 20260507134339 | 93 | 139 | 9.0 | 23.0 | 0.00 | 0.05 | 0.02 | 43 | 1005.0 |
| 20260507134139 | 93 | 139 | 9.0 | 23.0 | 0.00 | 0.05 | 0.02 | 43 | 1005.0 |
| 20260507133939 | 93 | 139 | 9.0 | 23.0 | 0.00 | 0.05 | 0.02 | 43 | 1005.0 |
| 20260507133739 | 93 | 139 | 9.0 | 23.0 | 0.00 | 0.05 | 0.02 | 43 | 1005.0 |
| 20260507133539 | 93 | 139 | 9.0 | 23.0 | 0.00 | 0.05 | 0.02 | 43 | 1005.0 |
| 20260507133339 | 93 | 145 | 11.0 | 23.0 | 0.00 | 0.05 | 0.02 | 43 | 1005.0 |
| 20260507133139 | 93 | 145 | 11.0 | 23.0 | 0.00 | 0.05 | 0.02 | 43 | 1005.0 |
| 20260507132939 | 93 | 134 | 10.0 | 25.0 | 0.00 | 0.05 | 0.02 | 42 | 1005.0 |
| 20260507132739 | 93 | 124 | 12.0 | 25.0 | 0.00 | 0.05 | 0.02 | 42 | 1005.0 |
| 20260507132339 | 93 | 124 | 12.0 | 25.0 | 0.00 | 0.05 | 0.02 | 42 | 1005.0 |
| 20260507132139 | 93 | 124 | 12.0 | 25.0 | 0.00 | 0.05 | 0.02 | 42 | 1005.0 |
| 20260507131939 | 93 | 124 | 12.0 | 25.0 | 0.00 | 0.05 | 0.02 | 42 | 1005.0 |
| 20260507131739 | 93 | 124 | 12.0 | 27.0 | 0.00 | 0.05 | 0.02 | 42 | 1005.0 |
| 20260507131539 | 93 | 124 | 12.0 | 27.0 | 0.00 | 0.05 | 0.02 | 42 | 1005.0 |
| 20260507131339 | 93 | 114 | 12.0 | 30.0 | 0.00 | 0.05 | 0.02 | 42 | 1005.0 |
| 20260507131139 | 93 | 114 | 12.0 | 30.0 | 0.00 | 0.05 | 0.02 | 42 | 1005.0 |
| 20260507130939 | 93 | 114 | 12.0 | 30.0 | 0.00 | 0.05 | 0.02 | 42 | 1005.0 |
| 20260507130739 | 93 | 114 | 12.0 | 30.0 | 0.00 | 0.05 | 0.02 | 42 | 1005.0 |
| 20260507130339 | 92 | 114 | 12.0 | 30.0 | 0.00 | 0.05 | 0.02 | 43 | 1005.0 |
| 20260507130139 | 92 | 114 | 12.0 | 30.0 | 0.00 | 0.05 | 0.02 | 43 | 1005.0 |
| 20260507125939 | 93 | 102 | 11.0 | 34.0 | 0.00 | 0.05 | 0.02 | 42 | 1004.0 |
| 20260507125739 | 93 | 102 | 11.0 | 34.0 | 0.00 | 0.05 | 0.02 | 42 | 1004.0 |
| 20260507125539 | 93 | 102 | 11.0 | 34.0 | 0.00 | 0.05 | 0.02 | 42 | 1004.0 |
| 20260507125339 | 93 | 102 | 11.0 | 34.0 | 0.00 | 0.05 | 0.02 | 42 | 1004.0 |
| 20260507125139 | 93 | 102 | 11.0 | 34.0 | 0.00 | 0.05 | 0.02 | 42 | 1004.0 |
| 20260507124939 | 93 | 102 | 11.0 | 34.0 | 0.00 | 0.05 | 0.02 | 42 | 1004.0 |
| 20260507124739 | 93 | 102 | 11.0 | 34.0 | 0.00 | 0.05 | 0.02 | 42 | 1004.0 |
| 20260507124539 | 93 | 102 | 11.0 | 34.0 | 0.00 | 0.05 | 0.02 | 42 | 1004.0 |
| 20260507124139 | 94 | 90 | 11.0 | 40.0 | 0.00 | 0.05 | 0.02 | 41 | 1004.0 |
| 20260507123939 | 94 | 90 | 11.0 | 40.0 | 0.00 | 0.05 | 0.02 | 41 | 1004.0 |
| 20260507123739 | 94 | 90 | 11.0 | 40.0 | 0.00 | 0.05 | 0.02 | 41 | 1004.0 |
| 20260507123539 | 94 | 90 | 11.0 | 40.0 | 0.00 | 0.05 | 0.02 | 41 | 1004.0 |
| 20260507123339 | 94 | 90 | 11.0 | 40.0 | 0.00 | 0.06 | 0.04 | 41 | 1004.0 |
| 20260507123139 | 94 | 90 | 11.0 | 40.0 | 0.00 | 0.06 | 0.04 | 44 | 1004.0 |
| 20260507122939 | 94 | 82 | 12.0 | 46.0 | 0.00 | 0.06 | 0.04 | 43 | 1004.0 |
| 20260507122739 | 94 | 82 | 12.0 | 46.0 | 0.00 | 0.06 | 0.04 | 43 | 1004.0 |
| 20260507122539 | 94 | 82 | 12.0 | 46.0 | 0.00 | 0.06 | 0.04 | 43 | 1004.0 |
| 20260507122339 | 94 | 82 | 12.0 | 46.0 | 0.00 | 0.06 | 0.04 | 43 | 1004.0 |
| 20260507121939 | 94 | 82 | 12.0 | 46.0 | 0.00 | 0.06 | 0.04 | 43 | 1004.0 |
| 20260507121739 | 94 | 82 | 12.0 | 46.0 | 0.00 | 0.06 | 0.04 | 43 | 1004.0 |
| 20260507121539 | 94 | 82 | 12.0 | 46.0 | 0.00 | 0.06 | 0.04 | 43 | 1004.0 |
| 20260507121339 | 94 | 81 | 12.0 | 51.0 | 0.00 | 0.06 | 0.04 | 43 | 1004.0 |
| 20260507121139 | 94 | 81 | 12.0 | 51.0 | 0.00 | 0.06 | 0.04 | 43 | 1004.0 |
| 20260507120939 | 94 | 81 | 12.0 | 51.0 | 0.00 | 0.06 | 0.04 | 43 | 1004.0 |
| 20260507120739 | 94 | 81 | 12.0 | 51.0 | 0.00 | 0.06 | 0.04 | 43 | 1004.0 |
| 20260507120539 | 94 | 81 | 12.0 | 51.0 | 0.00 | 0.06 | 0.04 | 43 | 1004.0 |
| 20260507120339 | 94 | 81 | 12.0 | 51.0 | 0.00 | 0.06 | 0.04 | 43 | 1004.0 |
| 20260507120139 | 94 | 81 | 12.0 | 51.0 | 0.00 | 0.06 | 0.04 | 43 | 1004.0 |
| 20260507115739 | 94 | 91 | 14.0 | 53.0 | 0.00 | 0.06 | 0.04 | 43 | 1004.0 |
| 20260507115539 | 94 | 91 | 14.0 | 53.0 | 0.00 | 0.06 | 0.04 | 43 | 1004.0 |
| 20260507115339 | 94 | 91 | 14.0 | 53.0 | 0.00 | 0.06 | 0.04 | 43 | 1004.0 |
| 20260507115139 | 94 | 91 | 14.0 | 53.0 | 0.00 | 0.06 | 0.04 | 43 | 1004.0 |
| 20260507114939 | 94 | 91 | 14.0 | 53.0 | 0.00 | 0.06 | 0.04 | 43 | 1004.0 |
| 20260507114739 | 94 | 91 | 14.0 | 53.0 | 0.00 | 0.06 | 0.04 | 43 | 1004.0 |
| 20260507114539 | 94 | 91 | 14.0 | 53.0 | 0.00 | 0.06 | 0.04 | 43 | 1004.0 |
| 20260507114339 | 94 | 103 | 18.0 | 54.0 | 0.00 | 0.06 | 0.04 | 44 | 1004.0 |
| 20260507114139 | 94 | 103 | 18.0 | 54.0 | 0.00 | 0.06 | 0.04 | 44 | 1004.0 |
| 20260507113940 | 94 | 103 | 18.0 | 54.0 | 0.00 | 0.06 | 0.04 | 44 | 1004.0 |
| 20260507113539 | 94 | 103 | 18.0 | 54.0 | 0.00 | 0.06 | 0.04 | 44 | 1004.0 |
| 20260507113339 | 94 | 103 | 18.0 | 54.0 | 0.00 | 0.06 | 0.04 | 44 | 1004.0 |
| 20260507113139 | 94 | 103 | 18.0 | 54.0 | 0.00 | 0.06 | 0.04 | 44 | 1004.0 |
| 20260507112939 | 94 | 114 | 21.0 | 54.0 | 0.00 | 0.06 | 0.04 | 45 | 1003.0 |
| 20260507112739 | 94 | 114 | 21.0 | 54.0 | 0.00 | 0.06 | 0.04 | 45 | 1003.0 |
| 20260507112539 | 94 | 114 | 21.0 | 54.0 | 0.00 | 0.06 | 0.04 | 45 | 1003.0 |
| 20260507112339 | 94 | 114 | 21.0 | 54.0 | 0.00 | 0.06 | 0.04 | 45 | 1003.0 |
| 20260507112139 | 94 | 114 | 21.0 | 54.0 | 0.00 | 0.06 | 0.04 | 45 | 1003.0 |
| 20260507111939 | 94 | 114 | 21.0 | 54.0 | 0.00 | 0.06 | 0.04 | 45 | 1003.0 |
| 20260507111539 | 94 | 114 | 21.0 | 54.0 | 0.00 | 0.06 | 0.04 | 45 | 1003.0 |
| 20260507111339 | 94 | 120 | 24.0 | 54.0 | 0.00 | 0.06 | 0.04 | 45 | 1003.0 |
| 20260507111139 | 94 | 120 | 24.0 | 54.0 | 0.00 | 0.06 | 0.04 | 45 | 1003.0 |
| 20260507110939 | 94 | 120 | 24.0 | 54.0 | 0.00 | 0.06 | 0.04 | 45 | 1003.0 |
| 20260507110739 | 94 | 120 | 24.0 | 54.0 | 0.00 | 0.06 | 0.04 | 45 | 1003.0 |
| 20260507110539 | 94 | 120 | 24.0 | 54.0 | 0.00 | 0.06 | 0.04 | 45 | 1003.0 |
| 20260507110339 | 94 | 120 | 24.0 | 54.0 | 0.00 | 0.06 | 0.04 | 45 | 1003.0 |
| 20260507110139 | 94 | 120 | 24.0 | 54.0 | 0.00 | 0.06 | 0.04 | 45 | 1003.0 |
| 20260507105939 | 95 | 123 | 24.0 | 53.0 | 0.00 | 0.06 | 0.04 | 44 | 1003.0 |
| 20260507105539 | 95 | 123 | 24.0 | 53.0 | 0.00 | 0.06 | 0.04 | 44 | 1003.0 |
| 20260507105339 | 95 | 123 | 24.0 | 53.0 | 0.00 | 0.06 | 0.04 | 44 | 1003.0 |
| 20260507105139 | 95 | 123 | 24.0 | 53.0 | 0.00 | 0.06 | 0.04 | 44 | 1003.0 |
| 20260507104939 | 95 | 123 | 24.0 | 53.0 | 0.00 | 0.06 | 0.04 | 44 | 1003.0 |
| 20260507104739 | 95 | 123 | 24.0 | 53.0 | 0.00 | 0.06 | 0.04 | 44 | 1003.0 |
| 20260507104539 | 95 | 123 | 24.0 | 53.0 | 0.00 | 0.06 | 0.04 | 44 | 1003.0 |
| 20260507104341 | 96 | 128 | 22.0 | 51.0 | 0.00 | 0.06 | 0.04 | 41 | 1003.0 |
| 20260507104139 | 96 | 128 | 22.0 | 51.0 | 0.00 | 0.06 | 0.04 | 41 | 1003.0 |
| 20260507103939 | 96 | 128 | 22.0 | 51.0 | 0.00 | 0.06 | 0.04 | 41 | 1003.0 |
| 20260507103739 | 96 | 128 | 22.0 | 51.0 | 0.00 | 0.06 | 0.04 | 41 | 1003.0 |
| 20260507101339 | 99 | 135 | 19.0 | 47.0 | 0.00 | 0.06 | 0.04 | 37 | 1003.0 |
| 20260507101139 | 99 | 135 | 19.0 | 47.0 | 0.00 | 0.06 | 0.04 | 37 | 1003.0 |
| 20260507100939 | 99 | 135 | 19.0 | 47.0 | 0.00 | 0.06 | 0.04 | 37 | 1003.0 |
| 20260507100739 | 99 | 135 | 19.0 | 47.0 | 0.00 | 0.06 | 0.04 | 37 | 1003.0 |
| 20260507100539 | 99 | 135 | 19.0 | 47.0 | 0.00 | 0.06 | 0.04 | 37 | 1003.0 |
| 20260507100339 | 99 | 135 | 19.0 | 47.0 | 0.00 | 0.06 | 0.04 | 37 | 1003.0 |
| 20260507100140 | 99 | 135 | 19.0 | 47.0 | 0.00 | 0.06 | 0.04 | 37 | 1003.0 |
| 20260507095940 | 99 | 136 | 19.0 | 46.0 | 0.00 | 0.06 | 0.04 | 37 | 1003.0 |
| 20260507095739 | 99 | 136 | 19.0 | 46.0 | 0.00 | 0.06 | 0.04 | 37 | 1003.0 |
| 20260507095540 | 99 | 136 | 19.0 | 46.0 | 0.00 | 0.06 | 0.04 | 37 | 1003.0 |
| 20260507095139 | 99 | 136 | 19.0 | 46.0 | 0.00 | 0.06 | 0.04 | 37 | 1003.0 |
| 20260507094939 | 99 | 136 | 19.0 | 46.0 | 0.00 | 0.06 | 0.04 | 37 | 1003.0 |
| 20260507094739 | 99 | 136 | 19.0 | 46.0 | 0.00 | 0.06 | 0.04 | 37 | 1003.0 |
| 20260507094539 | 99 | 136 | 19.0 | 46.0 | 0.00 | 0.06 | 0.04 | 37 | 1003.0 |
| 20260507094339 | 99 | 135 | 18.0 | 46.0 | 0.00 | 0.06 | 0.04 | 37 | 1004.0 |
| 20260507094139 | 99 | 135 | 18.0 | 46.0 | 0.00 | 0.06 | 0.04 | 37 | 1004.0 |
| 20260507093939 | 99 | 135 | 18.0 | 46.0 | 0.00 | 0.06 | 0.04 | 37 | 1004.0 |
| 20260507093739 | 99 | 135 | 18.0 | 46.0 | 0.00 | 0.06 | 0.04 | 37 | 1004.0 |
| 20260507093539 | 99 | 135 | 18.0 | 46.0 | 0.00 | 0.06 | 0.04 | 37 | 1004.0 |
| 20260507093340 | 99 | 135 | 18.0 | 46.0 | 0.00 | 0.06 | 0.04 | 37 | 1004.0 |
| 20260507092939 | 99 | 133 | 17.0 | 47.0 | 0.00 | 0.06 | 0.04 | 38 | 1004.0 |
| 20260507092739 | 99 | 133 | 17.0 | 47.0 | 0.00 | 0.06 | 0.04 | 38 | 1004.0 |
| 20260507092539 | 99 | 133 | 17.0 | 47.0 | 0.00 | 0.06 | 0.04 | 38 | 1004.0 |
| 20260507092339 | 99 | 133 | 17.0 | 47.0 | 0.00 | 0.06 | 0.04 | 38 | 1004.0 |
| 20260507092139 | 99 | 137 | 18.0 | 47.0 | 0.00 | 0.06 | 0.04 | 38 | 1004.0 |
| 20260507091939 | 99 | 137 | 18.0 | 47.0 | 0.00 | 0.06 | 0.04 | 38 | 1004.0 |
| 20260507091739 | 99 | 137 | 18.0 | 47.0 | 0.00 | 0.06 | 0.04 | 38 | 1004.0 |
| 20260507091539 | 99 | 166 | 13.0 | 47.0 | 0.00 | 0.06 | 0.04 | 38 | 1004.0 |
| 20260507091339 | 98 | 187 | 13.0 | 47.0 | 0.00 | 0.06 | 0.04 | 38 | 1004.0 |
| 20260507090939 | 98 | 187 | 13.0 | 47.0 | 0.00 | 0.06 | 0.04 | 38 | 1004.0 |
| 20260507090739 | 98 | 187 | 13.0 | 44.0 | 0.00 | 0.06 | 0.04 | 38 | 1004.0 |
| 20260507090539 | 98 | 187 | 13.0 | 44.0 | 0.00 | 0.06 | 0.04 | 38 | 1004.0 |
| 20260507090339 | 98 | 187 | 13.0 | 44.0 | 0.00 | 0.06 | 0.04 | 38 | 1004.0 |
| 20260507090139 | 98 | 187 | 13.0 | 44.0 | 0.00 | 0.06 | 0.04 | 38 | 1004.0 |
| 20260507085939 | 98 | 193 | 13.0 | 43.0 | 0.00 | 0.06 | 0.04 | 38 | 1004.0 |
| 20260507085739 | 99 | 193 | 13.0 | 43.0 | 0.00 | 0.06 | 0.04 | 37 | 1004.0 |
| 20260507085539 | 99 | 193 | 13.0 | 43.0 | 0.00 | 0.06 | 0.04 | 37 | 1004.0 |
| 20260507085339 | 99 | 193 | 13.0 | 43.0 | 0.00 | 0.06 | 0.04 | 37 | 1004.0 |
| 20260507085140 | 99 | 193 | 13.0 | 43.0 | 0.00 | 0.06 | 0.04 | 37 | 1004.0 |
| 20260507084739 | 99 | 193 | 13.0 | 43.0 | 0.00 | 0.06 | 0.04 | 37 | 1004.0 |
| 20260507084539 | 99 | 193 | 13.0 | 43.0 | 0.00 | 0.06 | 0.04 | 37 | 1004.0 |
| 20260507084339 | 99 | 190 | 13.0 | 44.0 | 0.00 | 0.06 | 0.04 | 38 | 1005.0 |
| 20260507084139 | 99 | 190 | 13.0 | 44.0 | 0.00 | 0.06 | 0.04 | 38 | 1005.0 |
| 20260507083939 | 99 | 190 | 13.0 | 44.0 | 0.00 | 0.06 | 0.04 | 38 | 1005.0 |
| 20260507083739 | 99 | 190 | 13.0 | 44.0 | 0.00 | 0.06 | 0.04 | 38 | 1005.0 |
| 20260507083539 | 99 | 190 | 13.0 | 44.0 | 0.00 | 0.06 | 0.04 | 38 | 1005.0 |
| 20260507083339 | 99 | 190 | 13.0 | 44.0 | 0.00 | 0.00 | 0.13 | 38 | 1005.0 |
| 20260507083139 | 99 | 190 | 13.0 | 44.0 | 0.00 | 0.00 | 0.13 | 38 | 1005.0 |
| 20260507082940 | 99 | 185 | 13.0 | 44.0 | 0.00 | 0.00 | 0.13 | 38 | 1005.0 |
| 20260507082539 | 99 | 185 | 13.0 | 44.0 | 0.00 | 0.00 | 0.13 | 37 | 1005.0 |
| 20260507082339 | 99 | 185 | 13.0 | 44.0 | 0.00 | 0.00 | 0.13 | 37 | 1005.0 |
| 20260507082139 | 99 | 185 | 13.0 | 44.0 | 0.00 | 0.00 | 0.13 | 37 | 1005.0 |
| 20260507081939 | 99 | 185 | 13.0 | 44.0 | 0.00 | 0.00 | 0.13 | 37 | 1005.0 |
| 20260507081739 | 99 | 185 | 13.0 | 44.0 | 0.00 | 0.00 | 0.13 | 37 | 1005.0 |
| 20260507081539 | 99 | 185 | 13.0 | 44.0 | 0.00 | 0.00 | 0.13 | 37 | 1005.0 |
| 20260507081339 | 98 | 178 | 13.0 | 44.0 | 0.00 | 0.00 | 0.13 | 37 | 1005.0 |
| 20260507081139 | 98 | 178 | 13.0 | 44.0 | 0.00 | 0.00 | 0.13 | 37 | 1005.0 |
| 20260507080939 | 98 | 178 | 13.0 | 44.0 | 0.00 | 0.00 | 0.13 | 37 | 1005.0 |
| 20260507074539 | 98 | 175 | 12.0 | 43.0 | 0.00 | 0.00 | 0.13 | 38 | 1006.0 |
| 20260507074339 | 98 | 170 | 12.0 | 43.0 | 0.00 | 0.00 | 0.13 | 38 | 1006.0 |
| 20260507074139 | 98 | 170 | 12.0 | 43.0 | 0.00 | 0.00 | 0.13 | 38 | 1006.0 |
| 20260507073939 | 98 | 170 | 12.0 | 43.0 | 0.00 | 0.00 | 0.13 | 38 | 1006.0 |
| 20260507073739 | 98 | 170 | 12.0 | 43.0 | 0.00 | 0.00 | 0.13 | 38 | 1006.0 |
| 20260507073539 | 98 | 170 | 12.0 | 43.0 | 0.00 | 0.00 | 0.13 | 38 | 1006.0 |
| 20260507073339 | 98 | 170 | 12.0 | 43.0 | 0.00 | 0.00 | 0.13 | 38 | 1006.0 |
| 20260507073139 | 98 | 170 | 12.0 | 43.0 | 0.00 | 0.00 | 0.13 | 38 | 1006.0 |
| 20260507072939 | 97 | 166 | 11.0 | 42.0 | 0.00 | 0.00 | 0.13 | 39 | 1006.0 |
| 20260507072740 | 97 | 166 | 11.0 | 42.0 | 0.00 | 0.00 | 0.13 | 39 | 1006.0 |
| 20260507072339 | 97 | 166 | 11.0 | 42.0 | 0.00 | 0.00 | 0.13 | 39 | 1006.0 |
| 20260507072139 | 97 | 166 | 11.0 | 42.0 | 0.00 | 0.00 | 0.13 | 39 | 1006.0 |
| 20260507071939 | 97 | 166 | 11.0 | 42.0 | 0.00 | 0.00 | 0.13 | 39 | 1006.0 |
| 20260507071739 | 97 | 166 | 11.0 | 42.0 | 0.00 | 0.00 | 0.13 | 39 | 1006.0 |
| 20260507071539 | 97 | 166 | 11.0 | 42.0 | 0.00 | 0.00 | 0.13 | 39 | 1006.0 |
| 20260507071339 | 97 | 164 | 11.0 | 41.0 | 0.00 | 0.00 | 0.13 | 39 | 1007.0 |
| 20260507071139 | 97 | 164 | 11.0 | 41.0 | 0.00 | 0.00 | 0.13 | 39 | 1007.0 |
| 20260507070939 | 97 | 164 | 11.0 | 41.0 | 0.00 | 0.00 | 0.13 | 39 | 1007.0 |
| 20260507070739 | 97 | 164 | 11.0 | 41.0 | 0.00 | 0.00 | 0.13 | 39 | 1007.0 |
| 20260507070339 | 97 | 164 | 11.0 | 41.0 | 0.00 | 0.00 | 0.13 | 39 | 1007.0 |
| 20260507070140 | 97 | 164 | 11.0 | 41.0 | 0.00 | 0.00 | 0.13 | 39 | 1007.0 |
| 20260507065939 | 97 | 163 | 10.0 | 41.0 | 0.00 | 0.00 | 0.13 | 40 | 1007.0 |
| 20260507065739 | 97 | 163 | 10.0 | 41.0 | 0.00 | 0.00 | 0.13 | 40 | 1007.0 |
| 20260507065539 | 97 | 163 | 10.0 | 41.0 | 0.00 | 0.00 | 0.13 | 40 | 1007.0 |
| 20260507065339 | 97 | 163 | 10.0 | 41.0 | 0.00 | 0.00 | 0.13 | 40 | 1007.0 |
| 20260507065139 | 97 | 163 | 10.0 | 41.0 | 0.00 | 0.00 | 0.13 | 40 | 1007.0 |
| 20260507064940 | 97 | 163 | 10.0 | 41.0 | 0.00 | 0.00 | 0.13 | 40 | 1007.0 |
| 20260507064740 | 97 | 163 | 10.0 | 41.0 | 0.00 | 0.00 | 0.13 | 40 | 1007.0 |
| 20260507064541 | 97 | 163 | 10.0 | 41.0 | 0.00 | 0.00 | 0.13 | 40 | 1007.0 |
| 20260507064139 | 96 | 162 | 10.0 | 41.0 | 0.00 | 0.00 | 0.13 | 41 | 1007.0 |
| 20260507063939 | 96 | 162 | 10.0 | 41.0 | 0.00 | 0.00 | 0.13 | 41 | 1007.0 |
| 20260507063739 | 96 | 162 | 10.0 | 41.0 | 0.00 | 0.00 | 0.13 | 41 | 1007.0 |
| 20260507063539 | 96 | 162 | 10.0 | 41.0 | 0.00 | 0.00 | 0.13 | 41 | 1007.0 |
| 20260507063339 | 96 | 162 | 10.0 | 41.0 | 0.00 | 0.00 | 0.13 | 41 | 1007.0 |
| 20260507063139 | 96 | 162 | 10.0 | 41.0 | 0.00 | 0.00 | 0.13 | 41 | 1007.0 |
| 20260507062939 | 96 | 163 | 9.0 | 40.0 | 0.00 | 0.00 | 0.13 | 42 | 1007.0 |
| 20260507062739 | 96 | 163 | 9.0 | 40.0 | 0.00 | 0.00 | 0.13 | 42 | 1007.0 |
| 20260507062539 | 96 | 163 | 9.0 | 40.0 | 0.00 | 0.00 | 0.13 | 42 | 1007.0 |
| 20260507062139 | 96 | 163 | 9.0 | 40.0 | 0.00 | 0.00 | 0.13 | 42 | 1007.0 |
| 20260507061940 | 96 | 163 | 9.0 | 40.0 | 0.00 | 0.00 | 0.13 | 42 | 1007.0 |
| 20260507061739 | 96 | 163 | 9.0 | 40.0 | 0.00 | 0.00 | 0.13 | 42 | 1007.0 |
| 20260507061539 | 96 | 163 | 9.0 | 40.0 | 0.00 | 0.00 | 0.13 | 42 | 1007.0 |
| 20260507061339 | 95 | 165 | 9.0 | 40.0 | 0.00 | 0.00 | 0.13 | 43 | 1008.0 |
| 20260507061139 | 95 | 165 | 9.0 | 40.0 | 0.00 | 0.00 | 0.13 | 43 | 1008.0 |
| 20260507060940 | 95 | 165 | 9.0 | 40.0 | 0.00 | 0.00 | 0.13 | 43 | 1008.0 |
| 20260507060739 | 95 | 165 | 9.0 | 40.0 | 0.00 | 0.00 | 0.13 | 43 | 1008.0 |
| 20260507060539 | 95 | 165 | 9.0 | 40.0 | 0.00 | 0.00 | 0.13 | 43 | 1008.0 |
| 20260507060340 | 95 | 165 | 9.0 | 40.0 | 0.00 | 0.00 | 0.13 | 43 | 1008.0 |
| 20260507055939 | 95 | 167 | 9.0 | 40.0 | 0.00 | 0.00 | 0.13 | 44 | 1008.0 |
| 20260507055739 | 95 | 167 | 9.0 | 40.0 | 0.00 | 0.00 | 0.13 | 44 | 1008.0 |
| 20260507055539 | 95 | 167 | 9.0 | 40.0 | 0.00 | 0.00 | 0.13 | 44 | 1008.0 |
| 20260507055339 | 95 | 167 | 9.0 | 40.0 | 0.00 | 0.00 | 0.13 | 44 | 1008.0 |
| 20260507055139 | 95 | 167 | 9.0 | 40.0 | 0.00 | 0.00 | 0.13 | 44 | 1008.0 |
| 20260507054939 | 95 | 167 | 9.0 | 40.0 | 0.00 | 0.00 | 0.13 | 44 | 1008.0 |
| 20260507054739 | 95 | 167 | 9.0 | 40.0 | 0.00 | 0.00 | 0.13 | 44 | 1008.0 |
| 20260507054539 | 95 | 167 | 9.0 | 40.0 | 0.00 | 0.00 | 0.13 | 44 | 1008.0 |
| 20260507054339 | 94 | 170 | 9.0 | 40.0 | 0.00 | 0.00 | 0.13 | 45 | 1008.0 |
| 20260507054141 | 94 | 170 | 9.0 | 40.0 | 0.00 | 0.00 | 0.13 | 45 | 1008.0 |
| 20260507053739 | 94 | 170 | 9.0 | 40.0 | 0.00 | 0.00 | 0.13 | 45 | 1008.0 |
| 20260507053539 | 94 | 170 | 9.0 | 40.0 | 0.00 | 0.00 | 0.13 | 45 | 1008.0 |
| 20260507053339 | 94 | 170 | 9.0 | 40.0 | 0.00 | 0.00 | 0.13 | 45 | 1008.0 |
| 20260507053139 | 94 | 170 | 9.0 | 40.0 | 0.00 | 0.00 | 0.13 | 45 | 1008.0 |
| 20260507052939 | 93 | 172 | 10.0 | 39.0 | 0.00 | 0.00 | 0.13 | 47 | 1008.0 |
| 20260507052739 | 93 | 172 | 10.0 | 39.0 | 0.00 | 0.00 | 0.13 | 47 | 1008.0 |
| 20260507052539 | 93 | 172 | 10.0 | 39.0 | 0.00 | 0.00 | 0.13 | 47 | 1008.0 |
| 20260507052342 | 93 | 172 | 10.0 | 39.0 | 0.00 | 0.00 | 0.13 | 47 | 1008.0 |
| 20260507052139 | 93 | 172 | 10.0 | 39.0 | 0.00 | 0.00 | 0.13 | 47 | 1008.0 |
| 20260507051940 | 93 | 172 | 10.0 | 39.0 | 0.00 | 0.00 | 0.13 | 47 | 1008.0 |
| 20260507051540 | 93 | 172 | 10.0 | 39.0 | 0.00 | 0.00 | 0.13 | 47 | 1008.0 |
| 20260507051339 | 92 | 174 | 10.0 | 39.0 | 0.00 | 0.00 | 0.13 | 48 | 1008.0 |
| 20260507051140 | 92 | 174 | 10.0 | 39.0 | 0.00 | 0.00 | 0.13 | 48 | 1008.0 |
| 20260507050940 | 92 | 174 | 10.0 | 39.0 | 0.00 | 0.00 | 0.13 | 48 | 1008.0 |
| 20260507050740 | 92 | 174 | 10.0 | 39.0 | 0.00 | 0.00 | 0.13 | 48 | 1008.0 |
| 20260507050540 | 92 | 174 | 10.0 | 39.0 | 0.00 | 0.00 | 0.13 | 48 | 1008.0 |
| 20260507050340 | 92 | 174 | 10.0 | 39.0 | 0.00 | 0.00 | 0.13 | 48 | 1008.0 |
| 20260507050140 | 92 | 174 | 10.0 | 39.0 | 0.00 | 0.00 | 0.13 | 48 | 1008.0 |
| 20260507045940 | 92 | 174 | 10.0 | 39.0 | 0.00 | 0.00 | 0.13 | 50 | 1009.0 |
| 20260507045741 | 92 | 174 | 10.0 | 39.0 | 0.00 | 0.00 | 0.13 | 50 | 1009.0 |
| 20260507045339 | 92 | 174 | 10.0 | 39.0 | 0.00 | 0.00 | 0.13 | 50 | 1009.0 |
| 20260507045139 | 92 | 174 | 10.0 | 39.0 | 0.00 | 0.00 | 0.13 | 50 | 1009.0 |
| 20260507044940 | 92 | 174 | 10.0 | 39.0 | 0.00 | 0.00 | 0.13 | 50 | 1009.0 |
| 20260507044739 | 92 | 174 | 10.0 | 39.0 | 0.00 | 0.00 | 0.13 | 50 | 1009.0 |
| 20260507044539 | 92 | 174 | 10.0 | 39.0 | 0.00 | 0.00 | 0.13 | 50 | 1009.0 |
| 20260507044339 | 91 | 174 | 9.0 | 39.0 | 0.00 | 0.00 | 0.13 | 51 | 1009.0 |
| 20260507044139 | 91 | 174 | 9.0 | 39.0 | 0.00 | 0.00 | 0.13 | 51 | 1009.0 |
| 20260507043939 | 91 | 174 | 9.0 | 39.0 | 0.00 | 0.00 | 0.13 | 51 | 1009.0 |
| 20260507043739 | 91 | 174 | 9.0 | 39.0 | 0.00 | 0.00 | 0.13 | 51 | 1009.0 |
| 20260507043540 | 91 | 174 | 9.0 | 39.0 | 0.00 | 0.00 | 0.13 | 51 | 1009.0 |
| 20260507043140 | 91 | 174 | 9.0 | 39.0 | 0.00 | 0.00 | 0.13 | 51 | 1009.0 |
| 20260507042940 | 90 | 173 | 9.0 | 38.0 | 0.00 | 0.00 | 0.13 | 53 | 1009.0 |
| 20260507042740 | 90 | 173 | 9.0 | 38.0 | 0.00 | 0.00 | 0.13 | 53 | 1009.0 |
| 20260507042540 | 90 | 173 | 9.0 | 38.0 | 0.00 | 0.00 | 0.13 | 53 | 1009.0 |
| 20260507042340 | 90 | 173 | 9.0 | 38.0 | 0.00 | 0.00 | 0.13 | 53 | 1009.0 |
| 20260507042140 | 90 | 173 | 9.0 | 38.0 | 0.00 | 0.00 | 0.13 | 53 | 1009.0 |
| 20260507041940 | 90 | 173 | 9.0 | 38.0 | 0.00 | 0.00 | 0.13 | 53 | 1009.0 |
| 20260507041740 | 90 | 173 | 9.0 | 38.0 | 0.00 | 0.00 | 0.13 | 53 | 1009.0 |
| 20260507041540 | 90 | 173 | 9.0 | 38.0 | 0.00 | 0.00 | 0.13 | 53 | 1009.0 |
| 20260507041341 | 89 | 173 | 8.0 | 37.0 | 0.00 | 0.00 | 0.13 | 55 | 1009.0 |
| 20260507040939 | 89 | 173 | 8.0 | 37.0 | 0.00 | 0.00 | 0.13 | 55 | 1009.0 |
| 20260507040739 | 89 | 173 | 8.0 | 37.0 | 0.00 | 0.00 | 0.13 | 55 | 1009.0 |
| 20260507040539 | 89 | 173 | 8.0 | 37.0 | 0.00 | 0.00 | 0.13 | 55 | 1009.0 |
| 20260507040339 | 89 | 173 | 8.0 | 37.0 | 0.00 | 0.00 | 0.13 | 55 | 1009.0 |
| 20260507040140 | 89 | 173 | 8.0 | 37.0 | 0.00 | 0.00 | 0.13 | 55 | 1009.0 |
| 20260507035940 | 89 | 170 | 7.0 | 34.0 | 0.00 | 0.00 | 0.13 | 57 | 1009.0 |
| 20260507035739 | 89 | 170 | 7.0 | 34.0 | 0.00 | 0.00 | 0.13 | 57 | 1009.0 |
| 20260507035540 | 89 | 170 | 7.0 | 34.0 | 0.00 | 0.00 | 0.13 | 57 | 1009.0 |
| 20260507035339 | 89 | 170 | 7.0 | 34.0 | 0.00 | 0.00 | 0.13 | 57 | 1009.0 |
| 20260507034940 | 89 | 170 | 7.0 | 34.0 | 0.00 | 0.00 | 0.13 | 57 | 1009.0 |
| 20260507034343 | 88 | 168 | 6.0 | 31.0 | 0.00 | 0.00 | 0.13 | 60 | 1009.0 |
| 20260507034140 | 88 | 168 | 6.0 | 31.0 | 0.00 | 0.00 | 0.13 | 60 | 1009.0 |
| 20260507033939 | 88 | 168 | 6.0 | 31.0 | 0.00 | 0.00 | 0.13 | 60 | 1009.0 |
| 20260507033540 | 88 | 168 | 6.0 | 31.0 | 0.00 | 0.00 | 0.13 | 60 | 1009.0 |
| 20260507033142 | 88 | 168 | 6.0 | 31.0 | 0.00 | 0.00 | 0.13 | 60 | 1009.0 |
| 20260507032739 | 87 | 163 | 5.0 | 27.0 | 0.00 | 0.00 | 0.13 | 62 | 1009.0 |
| 20260507032539 | 87 | 163 | 5.0 | 27.0 | 0.00 | 0.00 | 0.13 | 62 | 1009.0 |
| 20260507032340 | 87 | 163 | 5.0 | 27.0 | 0.00 | 0.00 | 0.13 | 62 | 1009.0 |
| 20260507032140 | 87 | 163 | 5.0 | 27.0 | 0.00 | 0.00 | 0.13 | 62 | 1009.0 |
| 20260507031940 | 87 | 163 | 5.0 | 27.0 | 0.00 | 0.00 | 0.13 | 62 | 1009.0 |
| 20260507031740 | 87 | 163 | 5.0 | 27.0 | 0.00 | 0.00 | 0.13 | 62 | 1009.0 |
| 20260507031539 | 87 | 163 | 5.0 | 27.0 | 0.00 | 0.00 | 0.13 | 62 | 1009.0 |
| 20260507031339 | 86 | 151 | 4.0 | 25.0 | 0.00 | 0.00 | 0.13 | 65 | 1009.0 |
| 20260507031139 | 86 | 151 | 4.0 | 25.0 | 0.00 | 0.00 | 0.13 | 65 | 1009.0 |
| 20260507030940 | 86 | 151 | 4.0 | 25.0 | 0.00 | 0.00 | 0.13 | 65 | 1009.0 |
| 20260507030540 | 86 | 151 | 4.0 | 25.0 | 0.00 | 0.00 | 0.13 | 65 | 1009.0 |
| 20260507030339 | 86 | 151 | 4.0 | 25.0 | 0.00 | 0.00 | 0.13 | 65 | 1009.0 |
| 20260507030141 | 86 | 151 | 4.0 | 25.0 | 0.00 | 0.00 | 0.13 | 65 | 1009.0 |
| 20260507025940 | 85 | 120 | 2.0 | 24.0 | 0.00 | 0.00 | 0.13 | 68 | 1009.0 |
| 20260507025740 | 85 | 120 | 2.0 | 24.0 | 0.00 | 0.00 | 0.13 | 68 | 1009.0 |
| 20260507025540 | 85 | 120 | 2.0 | 24.0 | 0.00 | 0.00 | 0.13 | 68 | 1009.0 |
| 20260507025340 | 85 | 120 | 2.0 | 24.0 | 0.00 | 0.00 | 0.13 | 68 | 1009.0 |
| 20260507025140 | 85 | 120 | 2.0 | 24.0 | 0.00 | 0.00 | 0.13 | 68 | 1009.0 |
| 20260507024940 | 85 | 120 | 2.0 | 24.0 | 0.00 | 0.00 | 0.13 | 68 | 1009.0 |
| 20260507024539 | 85 | 120 | 2.0 | 24.0 | 0.00 | 0.00 | 0.13 | 68 | 1009.0 |
| 20260507024340 | 84 | 63 | 3.0 | 24.0 | 0.00 | 0.00 | 0.13 | 72 | 1009.0 |
| 20260507024139 | 84 | 63 | 3.0 | 24.0 | 0.00 | 0.00 | 0.13 | 72 | 1009.0 |
| 20260507023940 | 84 | 63 | 3.0 | 24.0 | 0.00 | 0.00 | 0.13 | 72 | 1009.0 |
| 20260507023740 | 84 | 63 | 3.0 | 24.0 | 0.00 | 0.00 | 0.13 | 72 | 1009.0 |
| 20260507023540 | 84 | 63 | 3.0 | 24.0 | 0.00 | 0.00 | 0.13 | 72 | 1009.0 |
| 20260507023339 | 84 | 63 | 3.0 | 24.0 | 0.00 | 0.00 | 0.13 | 72 | 1009.0 |
| 20260507023139 | 84 | 63 | 3.0 | 24.0 | 0.00 | 0.00 | 0.13 | 72 | 1009.0 |
| 20260507022940 | 83 | 34 | 5.0 | 24.0 | 0.00 | 0.00 | 0.13 | 75 | 1009.0 |
| 20260507022540 | 83 | 34 | 5.0 | 24.0 | 0.00 | 0.00 | 0.13 | 75 | 1009.0 |
| 20260507022340 | 83 | 34 | 5.0 | 24.0 | 0.00 | 0.00 | 0.13 | 75 | 1009.0 |
| 20260507022139 | 83 | 34 | 5.0 | 24.0 | 0.00 | 0.00 | 0.13 | 75 | 1009.0 |
| 20260507021939 | 83 | 34 | 5.0 | 24.0 | 0.00 | 0.00 | 0.13 | 75 | 1009.0 |
| 20260507021739 | 83 | 34 | 5.0 | 24.0 | 0.00 | 0.00 | 0.13 | 75 | 1009.0 |
| 20260507021539 | 83 | 34 | 5.0 | 24.0 | 0.00 | 0.00 | 0.13 | 75 | 1009.0 |
| 20260507021340 | 82 | 24 | 6.0 | 23.0 | 0.00 | 0.00 | 0.13 | 79 | 1009.0 |
| 20260507021140 | 82 | 24 | 6.0 | 23.0 | 0.00 | 0.00 | 0.13 | 79 | 1009.0 |
| 20260507020940 | 82 | 24 | 6.0 | 23.0 | 0.00 | 0.00 | 0.13 | 79 | 1009.0 |
| 20260507020740 | 82 | 24 | 6.0 | 23.0 | 0.00 | 0.00 | 0.13 | 79 | 1009.0 |
| 20260507020340 | 82 | 24 | 6.0 | 23.0 | 0.00 | 0.00 | 0.13 | 79 | 1009.0 |
| 20260507020140 | 82 | 24 | 6.0 | 23.0 | 0.00 | 0.00 | 0.13 | 79 | 1009.0 |
| 20260507015940 | 81 | 15 | 7.0 | 23.0 | 0.00 | 0.00 | 0.13 | 82 | 1008.0 |
| 20260507015740 | 81 | 15 | 7.0 | 23.0 | 0.00 | 0.00 | 0.13 | 82 | 1008.0 |
| 20260507015540 | 81 | 15 | 7.0 | 23.0 | 0.00 | 0.00 | 0.13 | 82 | 1008.0 |
| 20260507015340 | 81 | 15 | 7.0 | 23.0 | 0.00 | 0.00 | 0.13 | 82 | 1008.0 |
| 20260507015140 | 81 | 15 | 7.0 | 23.0 | 0.00 | 0.00 | 0.13 | 82 | 1008.0 |
| 20260507014940 | 81 | 15 | 7.0 | 23.0 | 0.00 | 0.00 | 0.13 | 82 | 1008.0 |
| 20260507014740 | 81 | 15 | 7.0 | 23.0 | 0.00 | 0.00 | 0.13 | 82 | 1008.0 |
| 20260507014540 | 81 | 15 | 7.0 | 23.0 | 0.00 | 0.00 | 0.13 | 82 | 1008.0 |
| 20260507014140 | 80 | 8 | 10.0 | 22.0 | 0.00 | 0.00 | 0.13 | 84 | 1008.0 |
| 20260507013940 | 80 | 8 | 10.0 | 22.0 | 0.00 | 0.00 | 0.13 | 84 | 1008.0 |
| 20260507013740 | 80 | 8 | 10.0 | 22.0 | 0.00 | 0.00 | 0.13 | 84 | 1008.0 |
| 20260507013540 | 80 | 2 | 10.0 | 22.0 | 0.00 | 0.00 | 0.13 | 84 | 1008.0 |
| 20260507013340 | 80 | 2 | 10.0 | 22.0 | 0.00 | 0.00 | 0.13 | 84 | 1008.0 |
| 20260507013140 | 80 | 2 | 10.0 | 23.0 | 0.00 | 0.00 | 0.13 | 84 | 1008.0 |
| 20260507012940 | 79 | 358 | 9.0 | 20.0 | 0.00 | 0.00 | 0.13 | 87 | 1008.0 |
| 20260507012740 | 79 | 358 | 9.0 | 20.0 | 0.00 | 0.00 | 0.13 | 87 | 1008.0 |
| 20260507012540 | 79 | 358 | 9.0 | 20.0 | 0.00 | 0.00 | 0.13 | 87 | 1008.0 |
| 20260507012340 | 79 | 358 | 9.0 | 20.0 | 0.00 | 0.00 | 0.13 | 87 | 1008.0 |
| 20260507011940 | 80 | 358 | 9.0 | 20.0 | 0.00 | 0.00 | 0.13 | 86 | 1008.0 |
| 20260507011740 | 80 | 358 | 9.0 | 20.0 | 0.00 | 0.00 | 0.13 | 86 | 1008.0 |
| 20260507011540 | 80 | 358 | 9.0 | 20.0 | 0.00 | 0.00 | 0.13 | 86 | 1008.0 |
| 20260507011340 | 79 | 354 | 9.0 | 18.0 | 0.00 | 0.00 | 0.13 | 87 | 1008.0 |
| 20260507011140 | 79 | 354 | 9.0 | 18.0 | 0.00 | 0.00 | 0.13 | 87 | 1008.0 |
| 20260507010940 | 79 | 354 | 9.0 | 18.0 | 0.00 | 0.00 | 0.14 | 87 | 1008.0 |
| 20260507010740 | 79 | 354 | 9.0 | 18.0 | 0.00 | 0.00 | 0.14 | 87 | 1008.0 |
| 20260507010540 | 79 | 354 | 9.0 | 18.0 | 0.00 | 0.00 | 0.14 | 87 | 1008.0 |
| 20260507010340 | 79 | 354 | 9.0 | 18.0 | 0.00 | 0.00 | 0.14 | 87 | 1008.0 |
| 20260507005940 | 79 | 347 | 9.0 | 18.0 | 0.00 | 0.00 | 0.14 | 88 | 1008.0 |
| 20260507005740 | 79 | 347 | 9.0 | 18.0 | 0.00 | 0.00 | 0.14 | 88 | 1008.0 |
| 20260507005540 | 79 | 347 | 9.0 | 18.0 | 0.00 | 0.00 | 0.14 | 88 | 1008.0 |
| 20260507005340 | 79 | 347 | 9.0 | 18.0 | 0.00 | 0.00 | 0.14 | 88 | 1008.0 |
| 20260507005144 | 79 | 347 | 9.0 | 18.0 | 0.00 | 0.00 | 0.14 | 88 | 1008.0 |
| 20260507004940 | 79 | 347 | 9.0 | 18.0 | 0.00 | 0.00 | 0.14 | 88 | 1008.0 |
| 20260507004740 | 79 | 347 | 9.0 | 18.0 | 0.00 | 0.00 | 0.14 | 88 | 1008.0 |
| 20260507004540 | 79 | 347 | 9.0 | 18.0 | 0.00 | 0.00 | 0.14 | 88 | 1008.0 |
| 20260507004340 | 79 | 340 | 10.0 | 19.0 | 0.00 | 0.00 | 0.14 | 89 | 1008.0 |
| 20260507003940 | 79 | 340 | 10.0 | 19.0 | 0.00 | 0.00 | 0.14 | 89 | 1008.0 |
| 20260507003740 | 79 | 340 | 10.0 | 19.0 | 0.00 | 0.00 | 0.14 | 89 | 1008.0 |
| 20260507003540 | 79 | 340 | 10.0 | 19.0 | 0.00 | 0.00 | 0.14 | 89 | 1008.0 |
| 20260507003340 | 79 | 340 | 10.0 | 19.0 | 0.00 | 0.00 | 0.14 | 89 | 1008.0 |
| 20260507003140 | 79 | 340 | 10.0 | 19.0 | 0.00 | 0.00 | 0.14 | 89 | 1008.0 |
| 20260507002940 | 79 | 335 | 10.0 | 20.0 | 0.00 | 0.00 | 0.14 | 88 | 1008.0 |
| 20260507002740 | 79 | 335 | 10.0 | 20.0 | 0.00 | 0.00 | 0.14 | 88 | 1008.0 |
| 20260507002540 | 79 | 335 | 10.0 | 20.0 | 0.00 | 0.00 | 0.14 | 88 | 1008.0 |
| 20260507002340 | 79 | 335 | 10.0 | 20.0 | 0.00 | 0.00 | 0.14 | 88 | 1008.0 |
| 20260507002140 | 79 | 335 | 10.0 | 20.0 | 0.00 | 0.00 | 0.14 | 88 | 1008.0 |
| 20260507001740 | 79 | 335 | 10.0 | 20.0 | 0.00 | 0.00 | 0.14 | 88 | 1008.0 |
| 20260507001540 | 79 | 335 | 10.0 | 20.0 | 0.00 | 0.00 | 0.14 | 88 | 1008.0 |
| 20260507001340 | 79 | 330 | 11.0 | 21.0 | 0.00 | 0.00 | 0.14 | 88 | 1007.0 |
| 20260507001140 | 79 | 330 | 11.0 | 21.0 | 0.00 | 0.00 | 0.14 | 88 | 1007.0 |
| 20260507000940 | 79 | 330 | 11.0 | 21.0 | 0.00 | 0.00 | 0.14 | 88 | 1007.0 |
| 20260507000740 | 79 | 330 | 11.0 | 21.0 | 0.00 | 0.00 | 0.14 | 88 | 1007.0 |
| 20260507000540 | 79 | 330 | 11.0 | 21.0 | 0.00 | 0.00 | 0.14 | 88 | 1007.0 |
| 20260507000343 | 79 | 330 | 11.0 | 21.0 | 0.00 | 0.00 | 0.14 | 88 | 1007.0 |
| 20260507000141 | 79 | 330 | 11.0 | 21.0 | 0.00 | 0.00 | 0.14 | 88 | 1007.0 |
| 20260506235941 | 79 | 327 | 11.0 | 21.0 | 0.00 | 0.00 | 0.14 | 87 | 1007.0 |
| 20260506235540 | 79 | 327 | 11.0 | 21.0 | 0.00 | 0.00 | 0.14 | 87 | 1007.0 |
| 20260506235340 | 79 | 327 | 11.0 | 21.0 | 0.00 | 0.00 | 0.14 | 87 | 1007.0 |
| 20260506235140 | 79 | 327 | 11.0 | 21.0 | 0.00 | 0.00 | 0.14 | 87 | 1007.0 |
| 20260506234940 | 79 | 327 | 11.0 | 21.0 | 0.00 | 0.00 | 0.14 | 87 | 1007.0 |
| 20260506234740 | 79 | 327 | 11.0 | 21.0 | 0.00 | 0.00 | 0.14 | 87 | 1007.0 |
| 20260506234540 | 79 | 327 | 11.0 | 21.0 | 0.00 | 0.00 | 0.14 | 87 | 1007.0 |
| 20260506234340 | 79 | 325 | 12.0 | 21.0 | 0.00 | 0.00 | 0.14 | 86 | 1007.0 |
| 20260506234140 | 79 | 325 | 12.0 | 21.0 | 0.00 | 0.00 | 0.14 | 86 | 1007.0 |
| 20260506233940 | 79 | 325 | 12.0 | 21.0 | 0.00 | 0.00 | 0.14 | 86 | 1007.0 |
| 20260506233740 | 79 | 325 | 12.0 | 21.0 | 0.00 | 0.00 | 0.14 | 86 | 1007.0 |
| 20260506233340 | 79 | 325 | 12.0 | 21.0 | 0.00 | 0.00 | 0.14 | 86 | 1007.0 |
| 20260506233140 | 79 | 325 | 12.0 | 21.0 | 0.00 | 0.00 | 0.14 | 86 | 1007.0 |
| 20260506232940 | 80 | 325 | 12.0 | 20.0 | 0.00 | 0.00 | 0.14 | 85 | 1007.0 |
| 20260506232740 | 80 | 325 | 12.0 | 20.0 | 0.00 | 0.00 | 0.14 | 85 | 1007.0 |
| 20260506232540 | 80 | 325 | 12.0 | 20.0 | 0.00 | 0.00 | 0.14 | 85 | 1007.0 |
| 20260506232340 | 80 | 325 | 12.0 | 20.0 | 0.00 | 0.00 | 0.14 | 85 | 1007.0 |
| 20260506232140 | 80 | 325 | 12.0 | 20.0 | 0.00 | 0.00 | 0.14 | 85 | 1007.0 |
| 20260506231940 | 80 | 325 | 12.0 | 20.0 | 0.00 | 0.00 | 0.14 | 85 | 1007.0 |
| 20260506231740 | 80 | 325 | 12.0 | 20.0 | 0.00 | 0.00 | 0.14 | 85 | 1007.0 |
| 20260506231340 | 80 | 326 | 12.0 | 20.0 | 0.00 | 0.00 | 0.14 | 84 | 1007.0 |
| 20260506231140 | 80 | 326 | 12.0 | 20.0 | 0.00 | 0.00 | 0.14 | 84 | 1007.0 |
| 20260506230940 | 80 | 326 | 12.0 | 20.0 | 0.00 | 0.00 | 0.14 | 84 | 1007.0 |
| 20260506230740 | 80 | 326 | 12.0 | 20.0 | 0.00 | 0.00 | 0.14 | 84 | 1007.0 |
| 20260506230540 | 80 | 326 | 12.0 | 20.0 | 0.00 | 0.00 | 0.14 | 84 | 1007.0 |
| 20260506230340 | 80 | 326 | 12.0 | 20.0 | 0.00 | 0.00 | 0.14 | 84 | 1007.0 |
| 20260506230140 | 80 | 326 | 12.0 | 20.0 | 0.00 | 0.00 | 0.14 | 84 | 1007.0 |
| 20260506225940 | 80 | 332 | 11.0 | 20.0 | 0.00 | 0.00 | 0.14 | 83 | 1007.0 |
| 20260506225740 | 80 | 332 | 11.0 | 20.0 | 0.00 | 0.00 | 0.14 | 83 | 1007.0 |
| 20260506225540 | 80 | 332 | 11.0 | 20.0 | 0.00 | 0.00 | 0.14 | 83 | 1007.0 |
| 20260506225140 | 80 | 332 | 11.0 | 20.0 | 0.00 | 0.00 | 0.14 | 83 | 1007.0 |
| 20260506224940 | 80 | 332 | 11.0 | 20.0 | 0.00 | 0.00 | 0.14 | 83 | 1007.0 |
| 20260506224740 | 80 | 332 | 11.0 | 20.0 | 0.00 | 0.00 | 0.14 | 83 | 1007.0 |
| 20260506224540 | 80 | 332 | 11.0 | 20.0 | 0.00 | 0.00 | 0.14 | 83 | 1007.0 |
| 20260506224340 | 80 | 342 | 11.0 | 20.0 | 0.00 | 0.00 | 0.14 | 82 | 1007.0 |
| 20260506224140 | 80 | 342 | 11.0 | 20.0 | 0.00 | 0.00 | 0.14 | 82 | 1007.0 |
| 20260506223940 | 80 | 342 | 11.0 | 20.0 | 0.00 | 0.00 | 0.14 | 82 | 1007.0 |
| 20260506223740 | 80 | 342 | 11.0 | 20.0 | 0.00 | 0.00 | 0.14 | 82 | 1007.0 |
| 20260506223540 | 80 | 342 | 11.0 | 20.0 | 0.00 | 0.00 | 0.14 | 82 | 1007.0 |